Location: ??????
(38.5153°N, 23.0340°E)
Time: 22:16:08
(UTC+00:00)

Cosmos 2221 - Pass Details

Date: 13 December 2025
Orbit: 569 x 590 km, 82.5° (Epoch: 14 January)

Event Time Altitude Azimuth Distance (km) Brightness Sun altitude
Rises 16:35:20 0° 158° (SSE) 2,792 5.9 -16.6°
Reaches altitude 10° 16:37:48 10° 145° (SE) 1,894 4.9 -17.1°
Enters shadow 16:39:13 17° 130° (SE) 1,471 4.2 -17.4°
